TimeHAST,TemperatureF,Dew PointF,Humidity,Sea Level PressureIn,VisibilityMPH,Wind Direction,Wind SpeedMPH,Gust SpeedMPH,PrecipitationIn,Events,Conditions,WindDirDegrees,DateUTC
12:10 AM,37.4,37.4,100,30.45,10.0,SW,17.3,-,N/A,,Overcast,220,2014-02-12 10:10:00
12:33 AM,37.4,37.4,100,30.44,4.0,SW,15.0,-,N/A,,Overcast,220,2014-02-12 10:33:00
12:45 AM,37.4,37.4,100,30.43,4.0,SW,15.0,-,N/A,,Overcast,230,2014-02-12 10:45:00
12:56 AM,39.0,37.0,93,30.43,7.0,SW,13.8,-,N/A,,Overcast,230,2014-02-12 10:56:00
1:56 AM,37.9,37.0,97,30.40,9.0,WSW,19.6,-,N/A,,Overcast,240,2014-02-12 11:56:00
2:08 AM,37.4,37.4,100,30.41,5.0,WSW,19.6,-,N/A,,Overcast,240,2014-02-12 12:08:00
2:18 AM,37.4,37.4,100,30.41,1.8,WSW,16.1,-,N/A,,Overcast,240,2014-02-12 12:18:00
2:26 AM,37.4,37.4,100,30.41,1.5,WSW,18.4,-,N/A,,Overcast,240,2014-02-12 12:26:00
2:30 AM,37.4,37.4,100,30.41,-9999.0,WSW,18.4,-,N/A,,Overcast,250,2014-02-12 12:30:00
2:40 AM,37.4,37.4,100,30.41,4.0,WSW,18.4,-,N/A,,Overcast,250,2014-02-12 12:40:00
2:56 AM,37.9,37.9,100,30.41,9.0,West,15.0,-,N/A,,Overcast,260,2014-02-12 12:56:00
3:14 AM,37.4,37.4,100,30.40,1.8,WSW,18.4,-,N/A,,Overcast,250,2014-02-12 13:14:00
3:19 AM,37.4,37.4,100,30.40,1.2,West,17.3,-,N/A,,Overcast,260,2014-02-12 13:19:00
3:33 AM,37.4,37.4,100,30.40,1.0,West,16.1,-,N/A,,Mist,260,2014-02-12 13:33:00
3:40 AM,37.4,37.4,100,30.39,1.2,West,17.3,-,N/A,,Overcast,260,2014-02-12 13:40:00
3:47 AM,37.4,37.4,100,30.39,1.8,WSW,15.0,-,N/A,,Overcast,250,2014-02-12 13:47:00
3:56 AM,37.9,37.9,100,30.39,2.5,West,16.1,-,N/A,,Overcast,260,2014-02-12 13:56:00
4:06 AM,37.4,37.4,100,30.39,1.5,West,13.8,-,N/A,,Overcast,260,2014-02-12 14:06:00
4:14 AM,37.4,37.4,100,30.39,1.0,West,15.0,-,N/A,,Mist,260,2014-02-12 14:14:00
4:43 AM,37.4,37.4,100,30.38,0.8,West,13.8,-,N/A,,Mist,260,2014-02-12 14:43:00
4:56 AM,37.9,37.9,100,30.38,0.8,West,13.8,-,N/A,,Mist,260,2014-02-12 14:56:00
5:34 AM,37.4,37.4,100,30.37,1.2,West,16.1,-,N/A,,Overcast,260,2014-02-12 15:34:00
5:39 AM,37.4,37.4,100,30.37,1.8,West,16.1,-,N/A,,Overcast,260,2014-02-12 15:39:00
5:42 AM,37.4,37.4,100,30.37,-9999.0,West,17.3,-,N/A,,Overcast,270,2014-02-12 15:42:00
5:56 AM,37.9,37.0,97,30.36,2.5,West,15.0,-,N/A,,Overcast,280,2014-02-12 15:56:00
5:59 AM,37.4,37.4,100,30.36,1.5,West,15.0,-,N/A,,Overcast,280,2014-02-12 15:59:00
6:08 AM,37.4,37.4,100,30.35,-9999.0,West,15.0,-,N/A,,Overcast,280,2014-02-12 16:08:00
6:16 AM,37.4,37.4,100,30.35,6.0,West,16.1,-,N/A,,Overcast,280,2014-02-12 16:16:00
6:27 AM,37.4,37.4,100,30.36,1.8,West,16.1,-,N/A,,Overcast,280,2014-02-12 16:27:00
6:40 AM,37.4,37.4,100,30.36,-9999.0,WNW,13.8,-,N/A,,Overcast,290,2014-02-12 16:40:00
6:56 AM,37.9,37.0,97,30.36,2.5,WNW,13.8,-,N/A,,Overcast,290,2014-02-12 16:56:00
7:11 AM,37.4,37.4,100,30.36,4.0,WNW,12.7,-,N/A,,Overcast,300,2014-02-12 17:11:00
7:56 AM,37.9,37.0,97,30.35,4.0,WNW,6.9,-,N/A,,Overcast,290,2014-02-12 17:56:00
8:24 AM,37.4,35.6,93,30.35,6.0,West,10.4,-,N/A,,Overcast,280,2014-02-12 18:24:00
8:56 AM,37.0,36.0,96,30.34,5.0,NW,11.5,-,N/A,,Overcast,310,2014-02-12 18:56:00
9:51 AM,37.4,35.6,93,30.34,6.2,WNW,11.5,-,N/A,,Overcast,300,2014-02-12 19:51:00
9:56 AM,37.0,35.1,93,30.34,8.0,WNW,12.7,-,N/A,,Overcast,300,2014-02-12 19:56:00
10:11 AM,37.4,35.6,93,30.35,10.0,WNW,9.2,-,N/A,,Overcast,300,2014-02-12 20:11:00
10:56 AM,37.0,36.0,96,30.34,8.0,WNW,9.2,-,N/A,,Overcast,290,2014-02-12 20:56:00
11:04 AM,37.4,35.6,93,30.34,10.0,WNW,12.7,-,N/A,,Overcast,300,2014-02-12 21:04:00
11:18 AM,37.4,35.6,93,30.33,10.0,WNW,12.7,-,N/A,,Overcast,290,2014-02-12 21:18:00
11:56 AM,37.0,35.1,93,30.33,10.0,West,13.8,-,N/A,,Overcast,280,2014-02-12 21:56:00
12:56 PM,37.9,35.1,89,30.33,10.0,WNW,9.2,-,N/A,,Overcast,300,2014-02-12 22:56:00
1:56 PM,37.9,35.1,89,30.32,10.0,West,6.9,-,N/A,,Overcast,270,2014-02-12 23:56:00
2:56 PM,37.0,33.1,86,30.29,10.0,NW,21.9,-,N/A,,Overcast,310,2014-02-13 00:56:00
3:41 PM,35.6,32.0,87,30.28,10.0,NW,25.3,-,N/A,,Overcast,310,2014-02-13 01:41:00
3:56 PM,36.0,32.0,86,30.29,10.0,NW,21.9,-,N/A,,Overcast,310,2014-02-13 01:56:00
4:51 PM,35.6,32.0,87,30.28,10.0,NW,21.9,-,N/A,,Overcast,320,2014-02-13 02:51:00
4:56 PM,36.0,32.0,86,30.28,10.0,NW,26.5,-,N/A,,Mostly Cloudy,310,2014-02-13 02:56:00
5:56 PM,35.1,30.0,82,30.29,10.0,NW,25.3,33.4,N/A,,Mostly Cloudy,320,2014-02-13 03:56:00
6:39 PM,35.6,30.2,81,30.28,10.0,NW,21.9,31.1,N/A,,Overcast,320,2014-02-13 04:39:00
6:56 PM,35.1,30.9,85,30.28,10.0,NW,20.7,-,N/A,,Overcast,320,2014-02-13 04:56:00
7:56 PM,34.0,30.9,89,30.30,10.0,NW,18.4,-,N/A,,Overcast,310,2014-02-13 05:56:00
8:32 PM,33.8,30.2,87,30.30,10.0,NNW,21.9,27.6,N/A,,Overcast,330,2014-02-13 06:32:00
8:52 PM,33.8,30.2,87,30.30,10.0,NW,20.7,-,N/A,,Overcast,320,2014-02-13 06:52:00
8:56 PM,34.0,30.0,85,30.30,10.0,NNW,24.2,27.6,N/A,,Overcast,330,2014-02-13 06:56:00
9:03 PM,33.8,30.2,87,30.30,10.0,NNW,19.6,27.6,N/A,,Overcast,330,2014-02-13 07:03:00
9:21 PM,33.8,30.2,87,30.30,10.0,NNW,18.4,25.3,N/A,,Overcast,340,2014-02-13 07:21:00
9:35 PM,33.8,28.4,81,30.30,10.0,NNW,18.4,-,N/A,,Overcast,330,2014-02-13 07:35:00
9:42 PM,33.8,28.4,81,30.30,10.0,NNW,17.3,-,N/A,,Overcast,330,2014-02-13 07:42:00
9:56 PM,34.0,28.9,82,30.30,10.0,NNW,18.4,-,N/A,,Overcast,340,2014-02-13 07:56:00
10:49 PM,33.8,28.4,81,30.30,10.0,NNW,19.6,-,N/A,,Scattered Clouds,340,2014-02-13 08:49:00
10:56 PM,34.0,28.9,82,30.30,10.0,NNW,19.6,-,N/A,,Mostly Cloudy,340,2014-02-13 08:56:00
11:35 PM,33.8,28.4,81,30.30,10.0,NNW,19.6,-,N/A,,Mostly Cloudy,340,2014-02-13 09:35:00
11:42 PM,33.8,28.4,81,30.30,10.0,NNW,18.4,-,N/A,,Scattered Clouds,330,2014-02-13 09:42:00
11:56 PM,34.0,28.0,79,30.31,10.0,NNW,16.1,-,N/A,,Scattered Clouds,330,2014-02-13 09:56:00